Index of /20260430/WXO-DD/model_gdps/15km/00/135
Name Last modified Size Description
Parent Directory -
20260430T00Z_MSC_GDPS_AbsoluteVorticity_IsbL-0200_LatLon0.15_PT135H.grib2 2026-04-30 04:30 1.5M
20260430T00Z_MSC_GDPS_AbsoluteVorticity_IsbL-0250_LatLon0.15_PT135H.grib2 2026-04-30 04:30 1.3M
20260430T00Z_MSC_GDPS_AbsoluteVorticity_IsbL-0500_LatLon0.15_PT135H.grib2 2026-04-30 04:30 1.5M
20260430T00Z_MSC_GDPS_AbsoluteVorticity_IsbL-0700_LatLon0.15_PT135H.grib2 2026-04-30 04:30 1.3M
20260430T00Z_MSC_GDPS_AbsoluteVorticity_IsbL-0850_LatLon0.15_PT135H.grib2 2026-04-30 04:30 1.6M
20260430T00Z_MSC_GDPS_AirTemp_AGL-120m_LatLon0.15_PT135H.grib2 2026-04-30 04:30 905K
20260430T00Z_MSC_GDPS_AirTemp_AGL-2m_LatLon0.15_PT135H.grib2 2026-04-30 04:30 1.0M
20260430T00Z_MSC_GDPS_AirTemp_AGL-40m_LatLon0.15_PT135H.grib2 2026-04-30 04:30 806K
20260430T00Z_MSC_GDPS_AirTemp_AGL-80m_LatLon0.15_PT135H.grib2 2026-04-30 04:30 912K
20260430T00Z_MSC_GDPS_AirTemp_IsbL-0001_LatLon0.15_PT135H.grib2 2026-04-30 04:30 652K
20260430T00Z_MSC_GDPS_AirTemp_IsbL-0005_LatLon0.15_PT135H.grib2 2026-04-30 04:30 679K
20260430T00Z_MSC_GDPS_AirTemp_IsbL-0010_LatLon0.15_PT135H.grib2 2026-04-30 04:30 695K
20260430T00Z_MSC_GDPS_AirTemp_IsbL-0020_LatLon0.15_PT135H.grib2 2026-04-30 04:30 788K
20260430T00Z_MSC_GDPS_AirTemp_IsbL-0030_LatLon0.15_PT135H.grib2 2026-04-30 04:30 836K
20260430T00Z_MSC_GDPS_AirTemp_IsbL-0050_LatLon0.15_PT135H.grib2 2026-04-30 04:30 809K
20260430T00Z_MSC_GDPS_AirTemp_IsbL-0100_LatLon0.15_PT135H.grib2 2026-04-30 04:30 969K
20260430T00Z_MSC_GDPS_AirTemp_IsbL-0150_LatLon0.15_PT135H.grib2 2026-04-30 04:30 964K
20260430T00Z_MSC_GDPS_AirTemp_IsbL-0175_LatLon0.15_PT135H.grib2 2026-04-30 04:30 958K
20260430T00Z_MSC_GDPS_AirTemp_IsbL-0200_LatLon0.15_PT135H.grib2 2026-04-30 04:30 1.0M
20260430T00Z_MSC_GDPS_AirTemp_IsbL-0225_LatLon0.15_PT135H.grib2 2026-04-30 04:30 1.0M
20260430T00Z_MSC_GDPS_AirTemp_IsbL-0250_LatLon0.15_PT135H.grib2 2026-04-30 04:30 1.0M
20260430T00Z_MSC_GDPS_AirTemp_IsbL-0275_LatLon0.15_PT135H.grib2 2026-04-30 04:30 1.0M
20260430T00Z_MSC_GDPS_AirTemp_IsbL-0300_LatLon0.15_PT135H.grib2 2026-04-30 04:30 943K
20260430T00Z_MSC_GDPS_AirTemp_IsbL-0350_LatLon0.15_PT135H.grib2 2026-04-30 04:30 924K
20260430T00Z_MSC_GDPS_AirTemp_IsbL-0400_LatLon0.15_PT135H.grib2 2026-04-30 04:30 943K
20260430T00Z_MSC_GDPS_AirTemp_IsbL-0450_LatLon0.15_PT135H.grib2 2026-04-30 04:30 967K
20260430T00Z_MSC_GDPS_AirTemp_IsbL-0500_LatLon0.15_PT135H.grib2 2026-04-30 04:30 1.0M
20260430T00Z_MSC_GDPS_AirTemp_IsbL-0550_LatLon0.15_PT135H.grib2 2026-04-30 04:30 807K
20260430T00Z_MSC_GDPS_AirTemp_IsbL-0600_LatLon0.15_PT135H.grib2 2026-04-30 04:30 892K
20260430T00Z_MSC_GDPS_AirTemp_IsbL-0650_LatLon0.15_PT135H.grib2 2026-04-30 04:30 921K
20260430T00Z_MSC_GDPS_AirTemp_IsbL-0700_LatLon0.15_PT135H.grib2 2026-04-30 04:30 959K
20260430T00Z_MSC_GDPS_AirTemp_IsbL-0750_LatLon0.15_PT135H.grib2 2026-04-30 04:30 1.0M
20260430T00Z_MSC_GDPS_AirTemp_IsbL-0800_LatLon0.15_PT135H.grib2 2026-04-30 04:30 1.1M
20260430T00Z_MSC_GDPS_AirTemp_IsbL-0850_LatLon0.15_PT135H.grib2 2026-04-30 04:30 1.1M
20260430T00Z_MSC_GDPS_AirTemp_IsbL-0875_LatLon0.15_PT135H.grib2 2026-04-30 04:30 1.2M
20260430T00Z_MSC_GDPS_AirTemp_IsbL-0900_LatLon0.15_PT135H.grib2 2026-04-30 04:30 1.2M
20260430T00Z_MSC_GDPS_AirTemp_IsbL-0925_LatLon0.15_PT135H.grib2 2026-04-30 04:30 1.1M
20260430T00Z_MSC_GDPS_AirTemp_IsbL-0950_LatLon0.15_PT135H.grib2 2026-04-30 04:30 1.1M
20260430T00Z_MSC_GDPS_AirTemp_IsbL-0970_LatLon0.15_PT135H.grib2 2026-04-30 04:30 1.1M
20260430T00Z_MSC_GDPS_AirTemp_IsbL-0985_LatLon0.15_PT135H.grib2 2026-04-30 04:30 1.1M
20260430T00Z_MSC_GDPS_AirTemp_IsbL-1000_LatLon0.15_PT135H.grib2 2026-04-30 04:30 1.1M
20260430T00Z_MSC_GDPS_AirTemp_IsbL-1015_LatLon0.15_PT135H.grib2 2026-04-30 04:30 1.1M
20260430T00Z_MSC_GDPS_Albedo_Sfc_LatLon0.15_PT135H.grib2 2026-04-30 04:30 243K
20260430T00Z_MSC_GDPS_CAPE_Sfc_LatLon0.15_PT135H.grib2 2026-04-30 04:30 3.8M
20260430T00Z_MSC_GDPS_CIN_Sfc_LatLon0.15_PT135H.grib2 2026-04-30 04:30 2.9M
20260430T00Z_MSC_GDPS_CloudWater_EAtm_LatLon0.15_PT135H.grib2 2026-04-30 04:30 537K
20260430T00Z_MSC_GDPS_ConvectivePrecip-Accum_Sfc_LatLon0.15_PT135H.grib2 2026-04-30 04:30 3.6M
20260430T00Z_MSC_GDPS_DewPointDepression_AGL-2m_LatLon0.15_PT135H.grib2 2026-04-30 04:30 764K
20260430T00Z_MSC_GDPS_DewPointDepression_IsbL-0010_LatLon0.15_PT135H.grib2 2026-04-30 04:30 72K
20260430T00Z_MSC_GDPS_DewPointDepression_IsbL-0020_LatLon0.15_PT135H.grib2 2026-04-30 04:30 74K
20260430T00Z_MSC_GDPS_DewPointDepression_IsbL-0030_LatLon0.15_PT135H.grib2 2026-04-30 04:30 88K
20260430T00Z_MSC_GDPS_DewPointDepression_IsbL-0050_LatLon0.15_PT135H.grib2 2026-04-30 04:30 382K
20260430T00Z_MSC_GDPS_DewPointDepression_IsbL-0100_LatLon0.15_PT135H.grib2 2026-04-30 04:30 397K
20260430T00Z_MSC_GDPS_DewPointDepression_IsbL-0150_LatLon0.15_PT135H.grib2 2026-04-30 04:30 472K
20260430T00Z_MSC_GDPS_DewPointDepression_IsbL-0175_LatLon0.15_PT135H.grib2 2026-04-30 04:30 583K
20260430T00Z_MSC_GDPS_DewPointDepression_IsbL-0200_LatLon0.15_PT135H.grib2 2026-04-30 04:30 681K
20260430T00Z_MSC_GDPS_DewPointDepression_IsbL-0225_LatLon0.15_PT135H.grib2 2026-04-30 04:30 766K
20260430T00Z_MSC_GDPS_DewPointDepression_IsbL-0250_LatLon0.15_PT135H.grib2 2026-04-30 04:30 858K
20260430T00Z_MSC_GDPS_DewPointDepression_IsbL-0275_LatLon0.15_PT135H.grib2 2026-04-30 04:30 877K
20260430T00Z_MSC_GDPS_DewPointDepression_IsbL-0300_LatLon0.15_PT135H.grib2 2026-04-30 04:30 917K
20260430T00Z_MSC_GDPS_DewPointDepression_IsbL-0350_LatLon0.15_PT135H.grib2 2026-04-30 04:30 953K
20260430T00Z_MSC_GDPS_DewPointDepression_IsbL-0400_LatLon0.15_PT135H.grib2 2026-04-30 04:30 1.0M
20260430T00Z_MSC_GDPS_DewPointDepression_IsbL-0450_LatLon0.15_PT135H.grib2 2026-04-30 04:30 1.0M
20260430T00Z_MSC_GDPS_DewPointDepression_IsbL-0500_LatLon0.15_PT135H.grib2 2026-04-30 04:30 1.0M
20260430T00Z_MSC_GDPS_DewPointDepression_IsbL-0550_LatLon0.15_PT135H.grib2 2026-04-30 04:30 1.0M
20260430T00Z_MSC_GDPS_DewPointDepression_IsbL-0600_LatLon0.15_PT135H.grib2 2026-04-30 04:30 1.0M
20260430T00Z_MSC_GDPS_DewPointDepression_IsbL-0650_LatLon0.15_PT135H.grib2 2026-04-30 04:30 1.1M
20260430T00Z_MSC_GDPS_DewPointDepression_IsbL-0700_LatLon0.15_PT135H.grib2 2026-04-30 04:30 1.1M
20260430T00Z_MSC_GDPS_DewPointDepression_IsbL-0750_LatLon0.15_PT135H.grib2 2026-04-30 04:30 1.1M
20260430T00Z_MSC_GDPS_DewPointDepression_IsbL-0800_LatLon0.15_PT135H.grib2 2026-04-30 04:30 1.2M
20260430T00Z_MSC_GDPS_DewPointDepression_IsbL-0850_LatLon0.15_PT135H.grib2 2026-04-30 04:30 1.2M
20260430T00Z_MSC_GDPS_DewPointDepression_IsbL-0875_LatLon0.15_PT135H.grib2 2026-04-30 04:30 1.1M
20260430T00Z_MSC_GDPS_DewPointDepression_IsbL-0900_LatLon0.15_PT135H.grib2 2026-04-30 04:30 1.1M
20260430T00Z_MSC_GDPS_DewPointDepression_IsbL-0925_LatLon0.15_PT135H.grib2 2026-04-30 04:30 1.0M
20260430T00Z_MSC_GDPS_DewPointDepression_IsbL-0950_LatLon0.15_PT135H.grib2 2026-04-30 04:30 1.0M
20260430T00Z_MSC_GDPS_DewPointDepression_IsbL-0970_LatLon0.15_PT135H.grib2 2026-04-30 04:30 1.0M
20260430T00Z_MSC_GDPS_DewPointDepression_IsbL-0985_LatLon0.15_PT135H.grib2 2026-04-30 04:30 1.0M
20260430T00Z_MSC_GDPS_DewPointDepression_IsbL-1000_LatLon0.15_PT135H.grib2 2026-04-30 04:30 973K
20260430T00Z_MSC_GDPS_DewPointDepression_IsbL-1015_LatLon0.15_PT135H.grib2 2026-04-30 04:30 918K
20260430T00Z_MSC_GDPS_DewPoint_AGL-2m_LatLon0.15_PT135H.grib2 2026-04-30 04:30 611K
20260430T00Z_MSC_GDPS_DownwardLongwaveRadiationFlux-Accum_Sfc_LatLon0.15_PT135H.grib2 2026-04-30 04:30 828K
20260430T00Z_MSC_GDPS_DownwardShortwaveRadiationFlux-Accum_NTAtm_LatLon0.15_PT135H.grib2 2026-04-30 04:30 195K
20260430T00Z_MSC_GDPS_DownwardShortwaveRadiationFlux-Accum_Sfc_LatLon0.15_PT135H.grib2 2026-04-30 04:30 1.0M
20260430T00Z_MSC_GDPS_FreezingRain-Accum1h_Sfc_LatLon0.15_PT135H.grib2 2026-04-30 04:30 48K
20260430T00Z_MSC_GDPS_FreezingRain-Accum3h_Sfc_LatLon0.15_PT135H.grib2 2026-04-30 04:30 54K
20260430T00Z_MSC_GDPS_FreezingRain-Accum_Sfc_LatLon0.15_PT135H.grib2 2026-04-30 04:30 365K
20260430T00Z_MSC_GDPS_GeopotentialHeight_IsbL-0001_LatLon0.15_PT135H.grib2 2026-04-30 04:30 419K
20260430T00Z_MSC_GDPS_GeopotentialHeight_IsbL-0005_LatLon0.15_PT135H.grib2 2026-04-30 04:30 481K
20260430T00Z_MSC_GDPS_GeopotentialHeight_IsbL-0010_LatLon0.15_PT135H.grib2 2026-04-30 04:30 471K
20260430T00Z_MSC_GDPS_GeopotentialHeight_IsbL-0020_LatLon0.15_PT135H.grib2 2026-04-30 04:30 410K
20260430T00Z_MSC_GDPS_GeopotentialHeight_IsbL-0030_LatLon0.15_PT135H.grib2 2026-04-30 04:30 566K
20260430T00Z_MSC_GDPS_GeopotentialHeight_IsbL-0050_LatLon0.15_PT135H.grib2 2026-04-30 04:30 568K
20260430T00Z_MSC_GDPS_GeopotentialHeight_IsbL-0100_LatLon0.15_PT135H.grib2 2026-04-30 04:30 611K
20260430T00Z_MSC_GDPS_GeopotentialHeight_IsbL-0150_LatLon0.15_PT135H.grib2 2026-04-30 04:30 633K
20260430T00Z_MSC_GDPS_GeopotentialHeight_IsbL-0175_LatLon0.15_PT135H.grib2 2026-04-30 04:30 636K
20260430T00Z_MSC_GDPS_GeopotentialHeight_IsbL-0200_LatLon0.15_PT135H.grib2 2026-04-30 04:30 641K
20260430T00Z_MSC_GDPS_GeopotentialHeight_IsbL-0225_LatLon0.15_PT135H.grib2 2026-04-30 04:30 637K
20260430T00Z_MSC_GDPS_GeopotentialHeight_IsbL-0250_LatLon0.15_PT135H.grib2 2026-04-30 04:30 646K
20260430T00Z_MSC_GDPS_GeopotentialHeight_IsbL-0275_LatLon0.15_PT135H.grib2 2026-04-30 04:30 644K
20260430T00Z_MSC_GDPS_GeopotentialHeight_IsbL-0300_LatLon0.15_PT135H.grib2 2026-04-30 04:30 637K
20260430T00Z_MSC_GDPS_GeopotentialHeight_IsbL-0350_LatLon0.15_PT135H.grib2 2026-04-30 04:30 633K
20260430T00Z_MSC_GDPS_GeopotentialHeight_IsbL-0400_LatLon0.15_PT135H.grib2 2026-04-30 04:30 623K
20260430T00Z_MSC_GDPS_GeopotentialHeight_IsbL-0450_LatLon0.15_PT135H.grib2 2026-04-30 04:30 612K
20260430T00Z_MSC_GDPS_GeopotentialHeight_IsbL-0500_LatLon0.15_PT135H.grib2 2026-04-30 04:30 535K
20260430T00Z_MSC_GDPS_GeopotentialHeight_IsbL-0550_LatLon0.15_PT135H.grib2 2026-04-30 04:30 530K
20260430T00Z_MSC_GDPS_GeopotentialHeight_IsbL-0600_LatLon0.15_PT135H.grib2 2026-04-30 04:30 693K
20260430T00Z_MSC_GDPS_GeopotentialHeight_IsbL-0650_LatLon0.15_PT135H.grib2 2026-04-30 04:30 694K
20260430T00Z_MSC_GDPS_GeopotentialHeight_IsbL-0700_LatLon0.15_PT135H.grib2 2026-04-30 04:30 695K
20260430T00Z_MSC_GDPS_GeopotentialHeight_IsbL-0750_LatLon0.15_PT135H.grib2 2026-04-30 04:30 698K
20260430T00Z_MSC_GDPS_GeopotentialHeight_IsbL-0800_LatLon0.15_PT135H.grib2 2026-04-30 04:30 708K
20260430T00Z_MSC_GDPS_GeopotentialHeight_IsbL-0850_LatLon0.15_PT135H.grib2 2026-04-30 04:30 714K
20260430T00Z_MSC_GDPS_GeopotentialHeight_IsbL-0875_LatLon0.15_PT135H.grib2 2026-04-30 04:30 723K
20260430T00Z_MSC_GDPS_GeopotentialHeight_IsbL-0900_LatLon0.15_PT135H.grib2 2026-04-30 04:30 724K
20260430T00Z_MSC_GDPS_GeopotentialHeight_IsbL-0925_LatLon0.15_PT135H.grib2 2026-04-30 04:30 734K
20260430T00Z_MSC_GDPS_GeopotentialHeight_IsbL-0950_LatLon0.15_PT135H.grib2 2026-04-30 04:30 738K
20260430T00Z_MSC_GDPS_GeopotentialHeight_IsbL-0970_LatLon0.15_PT135H.grib2 2026-04-30 04:30 751K
20260430T00Z_MSC_GDPS_GeopotentialHeight_IsbL-0985_LatLon0.15_PT135H.grib2 2026-04-30 04:30 766K
20260430T00Z_MSC_GDPS_GeopotentialHeight_IsbL-1000_LatLon0.15_PT135H.grib2 2026-04-30 04:30 786K
20260430T00Z_MSC_GDPS_GeopotentialHeight_IsbL-1015_LatLon0.15_PT135H.grib2 2026-04-30 04:30 810K
20260430T00Z_MSC_GDPS_Humidex_Sfc_LatLon0.15_PT135H.grib2 2026-04-30 04:30 5.3M
20260430T00Z_MSC_GDPS_IcePellets-Accum1h_Sfc_LatLon0.15_PT135H.grib2 2026-04-30 04:30 17K
20260430T00Z_MSC_GDPS_IcePellets-Accum3h_Sfc_LatLon0.15_PT135H.grib2 2026-04-30 04:30 24K
20260430T00Z_MSC_GDPS_IcePellets-Accum_Sfc_LatLon0.15_PT135H.grib2 2026-04-30 04:30 95K
20260430T00Z_MSC_GDPS_KIndex_Sfc_LatLon0.15_PT135H.grib2 2026-04-30 04:30 6.5M
20260430T00Z_MSC_GDPS_LatentHeatNetFlux_Sfc_LatLon0.15_PT135H.grib2 2026-04-30 04:30 548K
20260430T00Z_MSC_GDPS_LiftedIndex-MU-VT_IsbL-0500_LatLon0.15_PT135H.grib2 2026-04-30 04:30 5.4M
20260430T00Z_MSC_GDPS_NetLongwaveRadiationFlux-Accum_Sfc_LatLon0.15_PT135H.grib2 2026-04-30 04:30 1.1M
20260430T00Z_MSC_GDPS_NetShortwaveRadiationFlux-Accum_Sfc_LatLon0.15_PT135H.grib2 2026-04-30 04:30 1.0M
20260430T00Z_MSC_GDPS_O3MixingRatio_Sfc_LatLon0.15_PT135H.grib2 2026-04-30 04:51 1.9M
20260430T00Z_MSC_GDPS_O3_EAtm_LatLon0.15_PT135H.grib2 2026-04-30 04:51 2.4M
20260430T00Z_MSC_GDPS_PlanetaryBoundaryLayerHeight_Sfc_LatLon0.15_PT135H.grib2 2026-04-30 04:30 2.5M
20260430T00Z_MSC_GDPS_Precip-Accum1h_Sfc_LatLon0.15_PT135H.grib2 2026-04-30 04:30 3.2M
20260430T00Z_MSC_GDPS_Precip-Accum3h_Sfc_LatLon0.15_PT135H.grib2 2026-04-30 04:30 3.5M
20260430T00Z_MSC_GDPS_Precip-Accum_Sfc_LatLon0.15_PT135H.grib2 2026-04-30 04:30 5.2M
20260430T00Z_MSC_GDPS_PrecipRate_Sfc_LatLon0.15_PT135H.grib2 2026-04-30 04:30 3.0M
20260430T00Z_MSC_GDPS_PrecipType-Instant_Sfc_LatLon0.15_PT135H.grib2 2026-04-30 04:30 1.6M
20260430T00Z_MSC_GDPS_Pressure_MSL_LatLon0.15_PT135H.grib2 2026-04-30 04:30 824K
20260430T00Z_MSC_GDPS_Pressure_PVU-1.5_LatLon0.15_PT135H.grib2 2026-04-30 04:30 5.8M
20260430T00Z_MSC_GDPS_Pressure_PVU-1_LatLon0.15_PT135H.grib2 2026-04-30 04:30 6.0M
20260430T00Z_MSC_GDPS_Pressure_PVU-2_LatLon0.15_PT135H.grib2 2026-04-30 04:30 5.6M
20260430T00Z_MSC_GDPS_Pressure_Sfc_LatLon0.15_PT135H.grib2 2026-04-30 04:30 1.1M
20260430T00Z_MSC_GDPS_RadiativeTemp_Sfc_LatLon0.15_PT135H.grib2 2026-04-30 04:30 491K
20260430T00Z_MSC_GDPS_Rain-Accum1h_Sfc_LatLon0.15_PT135H.grib2 2026-04-30 04:30 1.7M
20260430T00Z_MSC_GDPS_Rain-Accum3h_Sfc_LatLon0.15_PT135H.grib2 2026-04-30 04:30 1.9M
20260430T00Z_MSC_GDPS_Rain-Accum_Sfc_LatLon0.15_PT135H.grib2 2026-04-30 04:30 4.0M
20260430T00Z_MSC_GDPS_RelativeHumidity_AGL-2m_LatLon0.15_PT135H.grib2 2026-04-30 04:30 1.1M
20260430T00Z_MSC_GDPS_RelativeHumidity_IsbL-0010_LatLon0.15_PT135H.grib2 2026-04-30 04:30 197K
20260430T00Z_MSC_GDPS_RelativeHumidity_IsbL-0020_LatLon0.15_PT135H.grib2 2026-04-30 04:30 160K
20260430T00Z_MSC_GDPS_RelativeHumidity_IsbL-0030_LatLon0.15_PT135H.grib2 2026-04-30 04:30 185K
20260430T00Z_MSC_GDPS_RelativeHumidity_IsbL-0050_LatLon0.15_PT135H.grib2 2026-04-30 04:30 337K
20260430T00Z_MSC_GDPS_RelativeHumidity_IsbL-0100_LatLon0.15_PT135H.grib2 2026-04-30 04:30 502K
20260430T00Z_MSC_GDPS_RelativeHumidity_IsbL-0150_LatLon0.15_PT135H.grib2 2026-04-30 04:30 653K
20260430T00Z_MSC_GDPS_RelativeHumidity_IsbL-0175_LatLon0.15_PT135H.grib2 2026-04-30 04:30 793K
20260430T00Z_MSC_GDPS_RelativeHumidity_IsbL-0200_LatLon0.15_PT135H.grib2 2026-04-30 04:30 711K
20260430T00Z_MSC_GDPS_RelativeHumidity_IsbL-0225_LatLon0.15_PT135H.grib2 2026-04-30 04:30 786K
20260430T00Z_MSC_GDPS_RelativeHumidity_IsbL-0250_LatLon0.15_PT135H.grib2 2026-04-30 04:30 859K
20260430T00Z_MSC_GDPS_RelativeHumidity_IsbL-0275_LatLon0.15_PT135H.grib2 2026-04-30 04:30 881K
20260430T00Z_MSC_GDPS_RelativeHumidity_IsbL-0300_LatLon0.15_PT135H.grib2 2026-04-30 04:30 924K
20260430T00Z_MSC_GDPS_RelativeHumidity_IsbL-0350_LatLon0.15_PT135H.grib2 2026-04-30 04:30 946K
20260430T00Z_MSC_GDPS_RelativeHumidity_IsbL-0400_LatLon0.15_PT135H.grib2 2026-04-30 04:30 970K
20260430T00Z_MSC_GDPS_RelativeHumidity_IsbL-0450_LatLon0.15_PT135H.grib2 2026-04-30 04:30 1.0M
20260430T00Z_MSC_GDPS_RelativeHumidity_IsbL-0500_LatLon0.15_PT135H.grib2 2026-04-30 04:30 1.0M
20260430T00Z_MSC_GDPS_RelativeHumidity_IsbL-0550_LatLon0.15_PT135H.grib2 2026-04-30 04:30 1.0M
20260430T00Z_MSC_GDPS_RelativeHumidity_IsbL-0600_LatLon0.15_PT135H.grib2 2026-04-30 04:30 1.1M
20260430T00Z_MSC_GDPS_RelativeHumidity_IsbL-0650_LatLon0.15_PT135H.grib2 2026-04-30 04:30 1.1M
20260430T00Z_MSC_GDPS_RelativeHumidity_IsbL-0700_LatLon0.15_PT135H.grib2 2026-04-30 04:30 1.1M
20260430T00Z_MSC_GDPS_RelativeHumidity_IsbL-0750_LatLon0.15_PT135H.grib2 2026-04-30 04:30 1.2M
20260430T00Z_MSC_GDPS_RelativeHumidity_IsbL-0800_LatLon0.15_PT135H.grib2 2026-04-30 04:30 1.2M
20260430T00Z_MSC_GDPS_RelativeHumidity_IsbL-0850_LatLon0.15_PT135H.grib2 2026-04-30 04:30 1.3M
20260430T00Z_MSC_GDPS_RelativeHumidity_IsbL-0875_LatLon0.15_PT135H.grib2 2026-04-30 04:30 1.3M
20260430T00Z_MSC_GDPS_RelativeHumidity_IsbL-0900_LatLon0.15_PT135H.grib2 2026-04-30 04:30 1.2M
20260430T00Z_MSC_GDPS_RelativeHumidity_IsbL-0925_LatLon0.15_PT135H.grib2 2026-04-30 04:30 1.2M
20260430T00Z_MSC_GDPS_RelativeHumidity_IsbL-0950_LatLon0.15_PT135H.grib2 2026-04-30 04:30 1.2M
20260430T00Z_MSC_GDPS_RelativeHumidity_IsbL-0970_LatLon0.15_PT135H.grib2 2026-04-30 04:30 1.2M
20260430T00Z_MSC_GDPS_RelativeHumidity_IsbL-0985_LatLon0.15_PT135H.grib2 2026-04-30 04:30 1.1M
20260430T00Z_MSC_GDPS_RelativeHumidity_IsbL-1000_LatLon0.15_PT135H.grib2 2026-04-30 04:30 1.2M
20260430T00Z_MSC_GDPS_RelativeHumidity_IsbL-1015_LatLon0.15_PT135H.grib2 2026-04-30 04:30 1.1M
20260430T00Z_MSC_GDPS_RelativeVorticity_IsbL-0200_LatLon0.15_PT135H.grib2 2026-04-30 04:30 1.5M
20260430T00Z_MSC_GDPS_RelativeVorticity_IsbL-0250_LatLon0.15_PT135H.grib2 2026-04-30 04:30 1.6M
20260430T00Z_MSC_GDPS_RelativeVorticity_IsbL-0500_LatLon0.15_PT135H.grib2 2026-04-30 04:30 1.5M
20260430T00Z_MSC_GDPS_RelativeVorticity_IsbL-0700_LatLon0.15_PT135H.grib2 2026-04-30 04:30 1.6M
20260430T00Z_MSC_GDPS_RelativeVorticity_IsbL-0850_LatLon0.15_PT135H.grib2 2026-04-30 04:30 1.6M
20260430T00Z_MSC_GDPS_Runoff-Accum_Sfc_LatLon0.15_PT135H.grib2 2026-04-30 04:30 148K
20260430T00Z_MSC_GDPS_SensibleHeatNetFlux_Sfc_LatLon0.15_PT135H.grib2 2026-04-30 04:30 657K
20260430T00Z_MSC_GDPS_ShowalterIndex_IsbL-0500_LatLon0.15_PT135H.grib2 2026-04-30 04:30 6.2M
20260430T00Z_MSC_GDPS_Snow-Accum1h_Sfc_LatLon0.15_PT135H.grib2 2026-04-30 04:30 1.1M
20260430T00Z_MSC_GDPS_Snow-Accum3h_Sfc_LatLon0.15_PT135H.grib2 2026-04-30 04:30 1.0M
20260430T00Z_MSC_GDPS_Snow-Accum_Sfc_LatLon0.15_PT135H.grib2 2026-04-30 04:30 2.1M
20260430T00Z_MSC_GDPS_SnowDensity_Sfc_LatLon0.15_PT135H.grib2 2026-04-30 04:30 264K
20260430T00Z_MSC_GDPS_SnowDepth_Sfc_LatLon0.15_PT135H.grib2 2026-04-30 04:30 1.7M
20260430T00Z_MSC_GDPS_SoilTemp_DBS-0to10cm_LatLon0.15_PT135H.grib2 2026-04-30 04:30 514K
20260430T00Z_MSC_GDPS_SoilTemp_Sfc_LatLon0.15_PT135H.grib2 2026-04-30 04:30 584K
20260430T00Z_MSC_GDPS_SoilVolumetricIceContent_Sfc_LatLon0.15_PT135H.grib2 2026-04-30 04:30 192K
20260430T00Z_MSC_GDPS_SoilVolumetricWaterContent_DBS-0to10cm_LatLon0.15_PT135H.grib2 2026-04-30 04:30 590K
20260430T00Z_MSC_GDPS_SoilVolumetricWaterContent_DBS-0to1cm_LatLon0.15_PT135H.grib2 2026-04-30 04:30 649K
20260430T00Z_MSC_GDPS_SpecificHumidity_AGL-120m_LatLon0.15_PT135H.grib2 2026-04-30 04:30 1.1M
20260430T00Z_MSC_GDPS_SpecificHumidity_AGL-2m_LatLon0.15_PT135H.grib2 2026-04-30 04:30 1.2M
20260430T00Z_MSC_GDPS_SpecificHumidity_AGL-40m_LatLon0.15_PT135H.grib2 2026-04-30 04:30 1.1M
20260430T00Z_MSC_GDPS_SpecificHumidity_AGL-80m_LatLon0.15_PT135H.grib2 2026-04-30 04:30 1.1M
20260430T00Z_MSC_GDPS_SpecificHumidity_IsbL-0001_LatLon0.15_PT135H.grib2 2026-04-30 04:30 1.2M
20260430T00Z_MSC_GDPS_SpecificHumidity_IsbL-0005_LatLon0.15_PT135H.grib2 2026-04-30 04:30 1.1M
20260430T00Z_MSC_GDPS_SpecificHumidity_IsbL-0010_LatLon0.15_PT135H.grib2 2026-04-30 04:30 1.2M
20260430T00Z_MSC_GDPS_SpecificHumidity_IsbL-0020_LatLon0.15_PT135H.grib2 2026-04-30 04:30 1.3M
20260430T00Z_MSC_GDPS_SpecificHumidity_IsbL-0030_LatLon0.15_PT135H.grib2 2026-04-30 04:30 1.6M
20260430T00Z_MSC_GDPS_SpecificHumidity_IsbL-0050_LatLon0.15_PT135H.grib2 2026-04-30 04:30 1.3M
20260430T00Z_MSC_GDPS_SpecificHumidity_IsbL-0100_LatLon0.15_PT135H.grib2 2026-04-30 04:30 1.3M
20260430T00Z_MSC_GDPS_SpecificHumidity_IsbL-0150_LatLon0.15_PT135H.grib2 2026-04-30 04:30 1.3M
20260430T00Z_MSC_GDPS_SpecificHumidity_IsbL-0175_LatLon0.15_PT135H.grib2 2026-04-30 04:30 1.2M
20260430T00Z_MSC_GDPS_SpecificHumidity_IsbL-0200_LatLon0.15_PT135H.grib2 2026-04-30 04:30 1.3M
20260430T00Z_MSC_GDPS_SpecificHumidity_IsbL-0225_LatLon0.15_PT135H.grib2 2026-04-30 04:30 1.3M
20260430T00Z_MSC_GDPS_SpecificHumidity_IsbL-0250_LatLon0.15_PT135H.grib2 2026-04-30 04:30 1.4M
20260430T00Z_MSC_GDPS_SpecificHumidity_IsbL-0275_LatLon0.15_PT135H.grib2 2026-04-30 04:30 1.3M
20260430T00Z_MSC_GDPS_SpecificHumidity_IsbL-0300_LatLon0.15_PT135H.grib2 2026-04-30 04:30 1.2M
20260430T00Z_MSC_GDPS_SpecificHumidity_IsbL-0350_LatLon0.15_PT135H.grib2 2026-04-30 04:30 1.2M
20260430T00Z_MSC_GDPS_SpecificHumidity_IsbL-0400_LatLon0.15_PT135H.grib2 2026-04-30 04:30 1.5M
20260430T00Z_MSC_GDPS_SpecificHumidity_IsbL-0450_LatLon0.15_PT135H.grib2 2026-04-30 04:30 1.3M
20260430T00Z_MSC_GDPS_SpecificHumidity_IsbL-0500_LatLon0.15_PT135H.grib2 2026-04-30 04:30 1.4M
20260430T00Z_MSC_GDPS_SpecificHumidity_IsbL-0550_LatLon0.15_PT135H.grib2 2026-04-30 04:30 1.6M
20260430T00Z_MSC_GDPS_SpecificHumidity_IsbL-0600_LatLon0.15_PT135H.grib2 2026-04-30 04:30 1.7M
20260430T00Z_MSC_GDPS_SpecificHumidity_IsbL-0650_LatLon0.15_PT135H.grib2 2026-04-30 04:30 1.5M
20260430T00Z_MSC_GDPS_SpecificHumidity_IsbL-0700_LatLon0.15_PT135H.grib2 2026-04-30 04:30 1.6M
20260430T00Z_MSC_GDPS_SpecificHumidity_IsbL-0750_LatLon0.15_PT135H.grib2 2026-04-30 04:30 1.7M
20260430T00Z_MSC_GDPS_SpecificHumidity_IsbL-0800_LatLon0.15_PT135H.grib2 2026-04-30 04:30 1.8M
20260430T00Z_MSC_GDPS_SpecificHumidity_IsbL-0850_LatLon0.15_PT135H.grib2 2026-04-30 04:30 1.9M
20260430T00Z_MSC_GDPS_SpecificHumidity_IsbL-0875_LatLon0.15_PT135H.grib2 2026-04-30 04:30 1.9M
20260430T00Z_MSC_GDPS_SpecificHumidity_IsbL-0900_LatLon0.15_PT135H.grib2 2026-04-30 04:30 1.6M
20260430T00Z_MSC_GDPS_SpecificHumidity_IsbL-0925_LatLon0.15_PT135H.grib2 2026-04-30 04:30 1.6M
20260430T00Z_MSC_GDPS_SpecificHumidity_IsbL-0950_LatLon0.15_PT135H.grib2 2026-04-30 04:30 1.6M
20260430T00Z_MSC_GDPS_SpecificHumidity_IsbL-0970_LatLon0.15_PT135H.grib2 2026-04-30 04:30 1.5M
20260430T00Z_MSC_GDPS_SpecificHumidity_IsbL-0985_LatLon0.15_PT135H.grib2 2026-04-30 04:30 1.5M
20260430T00Z_MSC_GDPS_SpecificHumidity_IsbL-1000_LatLon0.15_PT135H.grib2 2026-04-30 04:30 1.5M
20260430T00Z_MSC_GDPS_SpecificHumidity_IsbL-1015_LatLon0.15_PT135H.grib2 2026-04-30 04:30 1.5M
20260430T00Z_MSC_GDPS_SpecificHumidity_Sfc_LatLon0.15_PT135H.grib2 2026-04-30 04:30 595K
20260430T00Z_MSC_GDPS_Thickness_IsbL-0850to0700_LatLon0.15_PT135H.grib2 2026-04-30 04:30 474K
20260430T00Z_MSC_GDPS_Thickness_IsbL-1000to0500_LatLon0.15_PT135H.grib2 2026-04-30 04:30 377K
20260430T00Z_MSC_GDPS_Thickness_IsbL-1000to0850_LatLon0.15_PT135H.grib2 2026-04-30 04:30 494K
20260430T00Z_MSC_GDPS_TotalCloudCover_Sfc_LatLon0.15_PT135H.grib2 2026-04-30 04:30 821K
20260430T00Z_MSC_GDPS_TotalTotalsIndex_Sfc_LatLon0.15_PT135H.grib2 2026-04-30 04:30 6.2M
20260430T00Z_MSC_GDPS_UVIndex-ClearSky_Sfc_LatLon0.15_PT135H.grib2 2026-04-30 04:51 1.0M
20260430T00Z_MSC_GDPS_UVIndex_Sfc_LatLon0.15_PT135H.grib2 2026-04-30 04:51 1.5M
20260430T00Z_MSC_GDPS_UpwardLongwaveRadiationFlux_NTAtm_LatLon0.15_PT135H.grib2 2026-04-30 04:30 836K
20260430T00Z_MSC_GDPS_VerticalVelocity_IsbL-0200_LatLon0.15_PT135H.grib2 2026-04-30 04:30 1.1M
20260430T00Z_MSC_GDPS_VerticalVelocity_IsbL-0250_LatLon0.15_PT135H.grib2 2026-04-30 04:30 1.0M
20260430T00Z_MSC_GDPS_VerticalVelocity_IsbL-0500_LatLon0.15_PT135H.grib2 2026-04-30 04:30 1.3M
20260430T00Z_MSC_GDPS_VerticalVelocity_IsbL-0600_LatLon0.15_PT135H.grib2 2026-04-30 04:30 1.1M
20260430T00Z_MSC_GDPS_VerticalVelocity_IsbL-0700_LatLon0.15_PT135H.grib2 2026-04-30 04:30 1.2M
20260430T00Z_MSC_GDPS_VerticalVelocity_IsbL-0850_LatLon0.15_PT135H.grib2 2026-04-30 04:30 1.3M
20260430T00Z_MSC_GDPS_WindChill_Sfc_LatLon0.15_PT135H.grib2 2026-04-30 04:30 5.3M
20260430T00Z_MSC_GDPS_WindDir_AGL-10m_LatLon0.15_PT135H.grib2 2026-04-30 04:30 1.3M
20260430T00Z_MSC_GDPS_WindDir_AGL-120m_LatLon0.15_PT135H.grib2 2026-04-30 04:30 1.3M
20260430T00Z_MSC_GDPS_WindDir_AGL-40m_LatLon0.15_PT135H.grib2 2026-04-30 04:30 1.4M
20260430T00Z_MSC_GDPS_WindDir_AGL-80m_LatLon0.15_PT135H.grib2 2026-04-30 04:30 1.4M
20260430T00Z_MSC_GDPS_WindDir_IsbL-0001_LatLon0.15_PT135H.grib2 2026-04-30 04:30 685K
20260430T00Z_MSC_GDPS_WindDir_IsbL-0005_LatLon0.15_PT135H.grib2 2026-04-30 04:30 819K
20260430T00Z_MSC_GDPS_WindDir_IsbL-0010_LatLon0.15_PT135H.grib2 2026-04-30 04:30 834K
20260430T00Z_MSC_GDPS_WindDir_IsbL-0020_LatLon0.15_PT135H.grib2 2026-04-30 04:30 951K
20260430T00Z_MSC_GDPS_WindDir_IsbL-0030_LatLon0.15_PT135H.grib2 2026-04-30 04:30 941K
20260430T00Z_MSC_GDPS_WindDir_IsbL-0050_LatLon0.15_PT135H.grib2 2026-04-30 04:30 945K
20260430T00Z_MSC_GDPS_WindDir_IsbL-0100_LatLon0.15_PT135H.grib2 2026-04-30 04:30 1.0M
20260430T00Z_MSC_GDPS_WindDir_IsbL-0150_LatLon0.15_PT135H.grib2 2026-04-30 04:30 1.0M
20260430T00Z_MSC_GDPS_WindDir_IsbL-0175_LatLon0.15_PT135H.grib2 2026-04-30 04:30 1.0M
20260430T00Z_MSC_GDPS_WindDir_IsbL-0200_LatLon0.15_PT135H.grib2 2026-04-30 04:30 1.1M
20260430T00Z_MSC_GDPS_WindDir_IsbL-0225_LatLon0.15_PT135H.grib2 2026-04-30 04:30 1.1M
20260430T00Z_MSC_GDPS_WindDir_IsbL-0250_LatLon0.15_PT135H.grib2 2026-04-30 04:30 1.1M
20260430T00Z_MSC_GDPS_WindDir_IsbL-0275_LatLon0.15_PT135H.grib2 2026-04-30 04:30 1.2M
20260430T00Z_MSC_GDPS_WindDir_IsbL-0300_LatLon0.15_PT135H.grib2 2026-04-30 04:30 1.2M
20260430T00Z_MSC_GDPS_WindDir_IsbL-0350_LatLon0.15_PT135H.grib2 2026-04-30 04:30 1.2M
20260430T00Z_MSC_GDPS_WindDir_IsbL-0400_LatLon0.15_PT135H.grib2 2026-04-30 04:30 1.3M
20260430T00Z_MSC_GDPS_WindDir_IsbL-0450_LatLon0.15_PT135H.grib2 2026-04-30 04:30 1.3M
20260430T00Z_MSC_GDPS_WindDir_IsbL-0500_LatLon0.15_PT135H.grib2 2026-04-30 04:30 1.3M
20260430T00Z_MSC_GDPS_WindDir_IsbL-0550_LatLon0.15_PT135H.grib2 2026-04-30 04:30 1.4M
20260430T00Z_MSC_GDPS_WindDir_IsbL-0600_LatLon0.15_PT135H.grib2 2026-04-30 04:30 1.4M
20260430T00Z_MSC_GDPS_WindDir_IsbL-0650_LatLon0.15_PT135H.grib2 2026-04-30 04:30 1.5M
20260430T00Z_MSC_GDPS_WindDir_IsbL-0700_LatLon0.15_PT135H.grib2 2026-04-30 04:30 1.6M
20260430T00Z_MSC_GDPS_WindDir_IsbL-0750_LatLon0.15_PT135H.grib2 2026-04-30 04:30 1.7M
20260430T00Z_MSC_GDPS_WindDir_IsbL-0800_LatLon0.15_PT135H.grib2 2026-04-30 04:30 1.8M
20260430T00Z_MSC_GDPS_WindDir_IsbL-0850_LatLon0.15_PT135H.grib2 2026-04-30 04:30 1.9M
20260430T00Z_MSC_GDPS_WindDir_IsbL-0875_LatLon0.15_PT135H.grib2 2026-04-30 04:30 1.9M
20260430T00Z_MSC_GDPS_WindDir_IsbL-0900_LatLon0.15_PT135H.grib2 2026-04-30 04:30 1.9M
20260430T00Z_MSC_GDPS_WindDir_IsbL-0925_LatLon0.15_PT135H.grib2 2026-04-30 04:30 2.0M
20260430T00Z_MSC_GDPS_WindDir_IsbL-0950_LatLon0.15_PT135H.grib2 2026-04-30 04:30 1.9M
20260430T00Z_MSC_GDPS_WindDir_IsbL-0970_LatLon0.15_PT135H.grib2 2026-04-30 04:30 2.0M
20260430T00Z_MSC_GDPS_WindDir_IsbL-0985_LatLon0.15_PT135H.grib2 2026-04-30 04:30 2.0M
20260430T00Z_MSC_GDPS_WindDir_IsbL-1000_LatLon0.15_PT135H.grib2 2026-04-30 04:30 2.0M
20260430T00Z_MSC_GDPS_WindDir_IsbL-1015_LatLon0.15_PT135H.grib2 2026-04-30 04:30 2.0M
20260430T00Z_MSC_GDPS_WindGust-Max_AGL-10m_LatLon0.15_PT135H.grib2 2026-04-30 04:30 1.8M
20260430T00Z_MSC_GDPS_WindGust-Min_AGL-10m_LatLon0.15_PT135H.grib2 2026-04-30 04:30 2.1M
20260430T00Z_MSC_GDPS_WindGust_AGL-10m_LatLon0.15_PT135H.grib2 2026-04-30 04:30 2.1M
20260430T00Z_MSC_GDPS_WindSpeed_AGL-10m_LatLon0.15_PT135H.grib2 2026-04-30 04:30 1.1M
20260430T00Z_MSC_GDPS_WindSpeed_AGL-120m_LatLon0.15_PT135H.grib2 2026-04-30 04:30 1.2M
20260430T00Z_MSC_GDPS_WindSpeed_AGL-40m_LatLon0.15_PT135H.grib2 2026-04-30 04:30 1.2M
20260430T00Z_MSC_GDPS_WindSpeed_AGL-80m_LatLon0.15_PT135H.grib2 2026-04-30 04:30 1.2M
20260430T00Z_MSC_GDPS_WindSpeed_IsbL-0001_LatLon0.15_PT135H.grib2 2026-04-30 04:30 497K
20260430T00Z_MSC_GDPS_WindSpeed_IsbL-0005_LatLon0.15_PT135H.grib2 2026-04-30 04:30 689K
20260430T00Z_MSC_GDPS_WindSpeed_IsbL-0010_LatLon0.15_PT135H.grib2 2026-04-30 04:30 623K
20260430T00Z_MSC_GDPS_WindSpeed_IsbL-0020_LatLon0.15_PT135H.grib2 2026-04-30 04:30 852K
20260430T00Z_MSC_GDPS_WindSpeed_IsbL-0030_LatLon0.15_PT135H.grib2 2026-04-30 04:30 858K
20260430T00Z_MSC_GDPS_WindSpeed_IsbL-0050_LatLon0.15_PT135H.grib2 2026-04-30 04:30 898K
20260430T00Z_MSC_GDPS_WindSpeed_IsbL-0100_LatLon0.15_PT135H.grib2 2026-04-30 04:30 1.1M
20260430T00Z_MSC_GDPS_WindSpeed_IsbL-0150_LatLon0.15_PT135H.grib2 2026-04-30 04:30 943K
20260430T00Z_MSC_GDPS_WindSpeed_IsbL-0175_LatLon0.15_PT135H.grib2 2026-04-30 04:30 1.0M
20260430T00Z_MSC_GDPS_WindSpeed_IsbL-0200_LatLon0.15_PT135H.grib2 2026-04-30 04:30 1.1M
20260430T00Z_MSC_GDPS_WindSpeed_IsbL-0225_LatLon0.15_PT135H.grib2 2026-04-30 04:30 1.1M
20260430T00Z_MSC_GDPS_WindSpeed_IsbL-0250_LatLon0.15_PT135H.grib2 2026-04-30 04:30 1.1M
20260430T00Z_MSC_GDPS_WindSpeed_IsbL-0275_LatLon0.15_PT135H.grib2 2026-04-30 04:30 1.1M
20260430T00Z_MSC_GDPS_WindSpeed_IsbL-0300_LatLon0.15_PT135H.grib2 2026-04-30 04:30 1.1M
20260430T00Z_MSC_GDPS_WindSpeed_IsbL-0350_LatLon0.15_PT135H.grib2 2026-04-30 04:30 1.1M
20260430T00Z_MSC_GDPS_WindSpeed_IsbL-0400_LatLon0.15_PT135H.grib2 2026-04-30 04:30 1.1M
20260430T00Z_MSC_GDPS_WindSpeed_IsbL-0450_LatLon0.15_PT135H.grib2 2026-04-30 04:30 1.1M
20260430T00Z_MSC_GDPS_WindSpeed_IsbL-0500_LatLon0.15_PT135H.grib2 2026-04-30 04:30 1.1M
20260430T00Z_MSC_GDPS_WindSpeed_IsbL-0550_LatLon0.15_PT135H.grib2 2026-04-30 04:30 1.1M
20260430T00Z_MSC_GDPS_WindSpeed_IsbL-0600_LatLon0.15_PT135H.grib2 2026-04-30 04:30 1.1M
20260430T00Z_MSC_GDPS_WindSpeed_IsbL-0650_LatLon0.15_PT135H.grib2 2026-04-30 04:30 1.5M
20260430T00Z_MSC_GDPS_WindSpeed_IsbL-0700_LatLon0.15_PT135H.grib2 2026-04-30 04:30 1.5M
20260430T00Z_MSC_GDPS_WindSpeed_IsbL-0750_LatLon0.15_PT135H.grib2 2026-04-30 04:30 1.6M
20260430T00Z_MSC_GDPS_WindSpeed_IsbL-0800_LatLon0.15_PT135H.grib2 2026-04-30 04:30 1.7M
20260430T00Z_MSC_GDPS_WindSpeed_IsbL-0850_LatLon0.15_PT135H.grib2 2026-04-30 04:30 1.4M
20260430T00Z_MSC_GDPS_WindSpeed_IsbL-0875_LatLon0.15_PT135H.grib2 2026-04-30 04:30 1.5M
20260430T00Z_MSC_GDPS_WindSpeed_IsbL-0900_LatLon0.15_PT135H.grib2 2026-04-30 04:30 1.5M
20260430T00Z_MSC_GDPS_WindSpeed_IsbL-0925_LatLon0.15_PT135H.grib2 2026-04-30 04:30 1.8M
20260430T00Z_MSC_GDPS_WindSpeed_IsbL-0950_LatLon0.15_PT135H.grib2 2026-04-30 04:30 1.8M
20260430T00Z_MSC_GDPS_WindSpeed_IsbL-0970_LatLon0.15_PT135H.grib2 2026-04-30 04:30 1.8M
20260430T00Z_MSC_GDPS_WindSpeed_IsbL-0985_LatLon0.15_PT135H.grib2 2026-04-30 04:30 1.9M
20260430T00Z_MSC_GDPS_WindSpeed_IsbL-1000_LatLon0.15_PT135H.grib2 2026-04-30 04:30 1.9M
20260430T00Z_MSC_GDPS_WindSpeed_IsbL-1015_LatLon0.15_PT135H.grib2 2026-04-30 04:30 1.8M
20260430T00Z_MSC_GDPS_WindU_AGL-10m_LatLon0.15_PT135H.grib2 2026-04-30 04:30 1.3M
20260430T00Z_MSC_GDPS_WindU_AGL-120m_LatLon0.15_PT135H.grib2 2026-04-30 04:30 1.0M
20260430T00Z_MSC_GDPS_WindU_AGL-40m_LatLon0.15_PT135H.grib2 2026-04-30 04:30 1.0M
20260430T00Z_MSC_GDPS_WindU_AGL-80m_LatLon0.15_PT135H.grib2 2026-04-30 04:30 1.0M
20260430T00Z_MSC_GDPS_WindU_IsbL-0001_LatLon0.15_PT135H.grib2 2026-04-30 04:30 499K
20260430T00Z_MSC_GDPS_WindU_IsbL-0005_LatLon0.15_PT135H.grib2 2026-04-30 04:30 685K
20260430T00Z_MSC_GDPS_WindU_IsbL-0010_LatLon0.15_PT135H.grib2 2026-04-30 04:30 698K
20260430T00Z_MSC_GDPS_WindU_IsbL-0020_LatLon0.15_PT135H.grib2 2026-04-30 04:30 725K
20260430T00Z_MSC_GDPS_WindU_IsbL-0030_LatLon0.15_PT135H.grib2 2026-04-30 04:30 735K
20260430T00Z_MSC_GDPS_WindU_IsbL-0050_LatLon0.15_PT135H.grib2 2026-04-30 04:30 690K
20260430T00Z_MSC_GDPS_WindU_IsbL-0100_LatLon0.15_PT135H.grib2 2026-04-30 04:30 922K
20260430T00Z_MSC_GDPS_WindU_IsbL-0150_LatLon0.15_PT135H.grib2 2026-04-30 04:30 1.0M
20260430T00Z_MSC_GDPS_WindU_IsbL-0175_LatLon0.15_PT135H.grib2 2026-04-30 04:30 1.0M
20260430T00Z_MSC_GDPS_WindU_IsbL-0200_LatLon0.15_PT135H.grib2 2026-04-30 04:30 840K
20260430T00Z_MSC_GDPS_WindU_IsbL-0225_LatLon0.15_PT135H.grib2 2026-04-30 04:30 849K
20260430T00Z_MSC_GDPS_WindU_IsbL-0250_LatLon0.15_PT135H.grib2 2026-04-30 04:30 852K
20260430T00Z_MSC_GDPS_WindU_IsbL-0275_LatLon0.15_PT135H.grib2 2026-04-30 04:30 880K
20260430T00Z_MSC_GDPS_WindU_IsbL-0300_LatLon0.15_PT135H.grib2 2026-04-30 04:30 872K
20260430T00Z_MSC_GDPS_WindU_IsbL-0350_LatLon0.15_PT135H.grib2 2026-04-30 04:30 886K
20260430T00Z_MSC_GDPS_WindU_IsbL-0400_LatLon0.15_PT135H.grib2 2026-04-30 04:30 889K
20260430T00Z_MSC_GDPS_WindU_IsbL-0450_LatLon0.15_PT135H.grib2 2026-04-30 04:30 1.1M
20260430T00Z_MSC_GDPS_WindU_IsbL-0500_LatLon0.15_PT135H.grib2 2026-04-30 04:30 1.1M
20260430T00Z_MSC_GDPS_WindU_IsbL-0550_LatLon0.15_PT135H.grib2 2026-04-30 04:30 1.1M
20260430T00Z_MSC_GDPS_WindU_IsbL-0600_LatLon0.15_PT135H.grib2 2026-04-30 04:30 1.2M
20260430T00Z_MSC_GDPS_WindU_IsbL-0650_LatLon0.15_PT135H.grib2 2026-04-30 04:30 1.2M
20260430T00Z_MSC_GDPS_WindU_IsbL-0700_LatLon0.15_PT135H.grib2 2026-04-30 04:30 1.2M
20260430T00Z_MSC_GDPS_WindU_IsbL-0750_LatLon0.15_PT135H.grib2 2026-04-30 04:30 1.3M
20260430T00Z_MSC_GDPS_WindU_IsbL-0800_LatLon0.15_PT135H.grib2 2026-04-30 04:30 1.4M
20260430T00Z_MSC_GDPS_WindU_IsbL-0850_LatLon0.15_PT135H.grib2 2026-04-30 04:30 1.4M
20260430T00Z_MSC_GDPS_WindU_IsbL-0875_LatLon0.15_PT135H.grib2 2026-04-30 04:30 1.5M
20260430T00Z_MSC_GDPS_WindU_IsbL-0900_LatLon0.15_PT135H.grib2 2026-04-30 04:30 1.5M
20260430T00Z_MSC_GDPS_WindU_IsbL-0925_LatLon0.15_PT135H.grib2 2026-04-30 04:30 1.5M
20260430T00Z_MSC_GDPS_WindU_IsbL-0950_LatLon0.15_PT135H.grib2 2026-04-30 04:30 1.4M
20260430T00Z_MSC_GDPS_WindU_IsbL-0970_LatLon0.15_PT135H.grib2 2026-04-30 04:30 1.4M
20260430T00Z_MSC_GDPS_WindU_IsbL-0985_LatLon0.15_PT135H.grib2 2026-04-30 04:30 1.4M
20260430T00Z_MSC_GDPS_WindU_IsbL-1000_LatLon0.15_PT135H.grib2 2026-04-30 04:30 1.4M
20260430T00Z_MSC_GDPS_WindU_IsbL-1015_LatLon0.15_PT135H.grib2 2026-04-30 04:30 1.4M
20260430T00Z_MSC_GDPS_WindV_AGL-10m_LatLon0.15_PT135H.grib2 2026-04-30 04:30 1.6M
20260430T00Z_MSC_GDPS_WindV_AGL-120m_LatLon0.15_PT135H.grib2 2026-04-30 04:30 972K
20260430T00Z_MSC_GDPS_WindV_AGL-40m_LatLon0.15_PT135H.grib2 2026-04-30 04:30 967K
20260430T00Z_MSC_GDPS_WindV_AGL-80m_LatLon0.15_PT135H.grib2 2026-04-30 04:30 972K
20260430T00Z_MSC_GDPS_WindV_IsbL-0001_LatLon0.15_PT135H.grib2 2026-04-30 04:30 776K
20260430T00Z_MSC_GDPS_WindV_IsbL-0005_LatLon0.15_PT135H.grib2 2026-04-30 04:30 849K
20260430T00Z_MSC_GDPS_WindV_IsbL-0010_LatLon0.15_PT135H.grib2 2026-04-30 04:30 880K
20260430T00Z_MSC_GDPS_WindV_IsbL-0020_LatLon0.15_PT135H.grib2 2026-04-30 04:30 926K
20260430T00Z_MSC_GDPS_WindV_IsbL-0030_LatLon0.15_PT135H.grib2 2026-04-30 04:30 930K
20260430T00Z_MSC_GDPS_WindV_IsbL-0050_LatLon0.15_PT135H.grib2 2026-04-30 04:30 1.0M
20260430T00Z_MSC_GDPS_WindV_IsbL-0100_LatLon0.15_PT135H.grib2 2026-04-30 04:30 852K
20260430T00Z_MSC_GDPS_WindV_IsbL-0150_LatLon0.15_PT135H.grib2 2026-04-30 04:30 1.0M
20260430T00Z_MSC_GDPS_WindV_IsbL-0175_LatLon0.15_PT135H.grib2 2026-04-30 04:30 1.0M
20260430T00Z_MSC_GDPS_WindV_IsbL-0200_LatLon0.15_PT135H.grib2 2026-04-30 04:30 837K
20260430T00Z_MSC_GDPS_WindV_IsbL-0225_LatLon0.15_PT135H.grib2 2026-04-30 04:30 844K
20260430T00Z_MSC_GDPS_WindV_IsbL-0250_LatLon0.15_PT135H.grib2 2026-04-30 04:30 904K
20260430T00Z_MSC_GDPS_WindV_IsbL-0275_LatLon0.15_PT135H.grib2 2026-04-30 04:30 930K
20260430T00Z_MSC_GDPS_WindV_IsbL-0300_LatLon0.15_PT135H.grib2 2026-04-30 04:30 924K
20260430T00Z_MSC_GDPS_WindV_IsbL-0350_LatLon0.15_PT135H.grib2 2026-04-30 04:30 934K
20260430T00Z_MSC_GDPS_WindV_IsbL-0400_LatLon0.15_PT135H.grib2 2026-04-30 04:30 876K
20260430T00Z_MSC_GDPS_WindV_IsbL-0450_LatLon0.15_PT135H.grib2 2026-04-30 04:30 878K
20260430T00Z_MSC_GDPS_WindV_IsbL-0500_LatLon0.15_PT135H.grib2 2026-04-30 04:30 886K
20260430T00Z_MSC_GDPS_WindV_IsbL-0550_LatLon0.15_PT135H.grib2 2026-04-30 04:30 1.1M
20260430T00Z_MSC_GDPS_WindV_IsbL-0600_LatLon0.15_PT135H.grib2 2026-04-30 04:30 1.1M
20260430T00Z_MSC_GDPS_WindV_IsbL-0650_LatLon0.15_PT135H.grib2 2026-04-30 04:30 1.2M
20260430T00Z_MSC_GDPS_WindV_IsbL-0700_LatLon0.15_PT135H.grib2 2026-04-30 04:30 1.2M
20260430T00Z_MSC_GDPS_WindV_IsbL-0750_LatLon0.15_PT135H.grib2 2026-04-30 04:30 1.2M
20260430T00Z_MSC_GDPS_WindV_IsbL-0800_LatLon0.15_PT135H.grib2 2026-04-30 04:30 1.3M
20260430T00Z_MSC_GDPS_WindV_IsbL-0850_LatLon0.15_PT135H.grib2 2026-04-30 04:30 1.4M
20260430T00Z_MSC_GDPS_WindV_IsbL-0875_LatLon0.15_PT135H.grib2 2026-04-30 04:30 1.5M
20260430T00Z_MSC_GDPS_WindV_IsbL-0900_LatLon0.15_PT135H.grib2 2026-04-30 04:30 1.5M
20260430T00Z_MSC_GDPS_WindV_IsbL-0925_LatLon0.15_PT135H.grib2 2026-04-30 04:30 1.5M
20260430T00Z_MSC_GDPS_WindV_IsbL-0950_LatLon0.15_PT135H.grib2 2026-04-30 04:30 1.4M
20260430T00Z_MSC_GDPS_WindV_IsbL-0970_LatLon0.15_PT135H.grib2 2026-04-30 04:30 1.4M
20260430T00Z_MSC_GDPS_WindV_IsbL-0985_LatLon0.15_PT135H.grib2 2026-04-30 04:30 1.4M
20260430T00Z_MSC_GDPS_WindV_IsbL-1000_LatLon0.15_PT135H.grib2 2026-04-30 04:30 1.4M
20260430T00Z_MSC_GDPS_WindV_IsbL-1015_LatLon0.15_PT135H.grib2 2026-04-30 04:30 1.7M